EW9904 Weather Reports


Display with metric or nautical units.
time (UTC)temp
F
wind
direction
speed
MPH
gust
MPH
rain 1hr
in
rain 24hr
in
rain mn
in
humidity
%
barometer
mb
20260510065000 60 281 1.0 4.0 0.00 0.00 0.00 85 1010.1
20260510064500 60 210 0.0 2.0 0.00 0.00 0.00 86 1010.1
20260510064001 59 210 0.0 2.0 0.00 0.00 0.00 86 1010.1
20260510063500 59 209 1.0 3.0 0.00 0.00 0.00 86 1010.2
20260510063002 59 209 1.0 3.0 0.00 0.00 0.00 87 1010.2
20260510062001 58 206 0.0 2.0 0.00 0.00 0.00 87 1010.1
20260510061001 59 206 0.0 1.0 0.00 0.00 0.00 87 1010.2
20260510060501 58 206 1.0 3.0 0.00 0.00 0.00 88 1010.3
20260510060006 58 206 1.0 3.0 0.00 0.00 0.00 88 1010.3
20260510055459 58 207 1.0 2.0 0.00 0.00 0.00 88 1010.4
20260510055001 58 207 1.0 2.0 0.00 0.00 0.00 88 1010.4
20260510054501 58 207 1.0 2.0 0.00 0.00 0.00 87 1010.4
20260510054000 59 209 1.0 2.0 0.00 0.00 0.00 87 1010.4
20260510053459 59 209 1.0 4.0 0.00 0.00 0.00 87 1010.4
20260510053000 58 209 1.0 4.0 0.00 0.00 0.00 87 1010.5
20260510052500 58 209 1.0 2.0 0.00 0.00 0.00 87 1010.4
20260510052000 59 209 0.0 2.0 0.00 0.00 0.00 87 1010.4
20260510051459 59 209 0.0 3.0 0.00 0.00 0.00 87 1010.4
20260510050959 59 209 1.0 3.0 0.00 0.00 0.00 87 1010.4
20260510050005 59 209 1.0 3.0 0.00 0.00 0.00 87 1010.5
20260510045503 59 209 1.0 3.0 0.00 0.00 0.00 88 1010.4
20260510044502 59 209 0.0 3.0 0.00 0.00 0.00 88 1010.4
20260510044003 59 209 0.0 3.0 0.00 0.00 0.00 88 1010.5
20260510043504 59 209 1.0 3.0 0.00 0.00 0.00 88 1010.5
20260510043005 59 209 0.0 3.0 0.00 0.00 0.00 87 1010.5
20260510042502 59 209 1.0 3.0 0.00 0.00 0.00 88 1010.5
20260510041503 59 209 1.0 5.0 0.00 0.00 0.00 89 1010.4
20260510041004 59 245 1.0 4.0 0.00 0.00 0.00 89 1010.4
20260510040503 59 245 1.0 4.0 0.00 0.00 0.00 89 1010.4
20260510040005 59 245 0.0 1.0 0.00 0.00 0.00 89 1010.4
20260510035503 59 245 0.0 1.0 0.00 0.00 0.00 89 1010.4
20260510035004 59 245 0.0 2.0 0.00 0.00 0.00 89 1010.4
20260510033504 60 245 0.0 1.0 0.00 0.00 0.00 90 1010.2
20260510033005 59 245 0.0 2.0 0.00 0.00 0.00 90 1010.2
20260510032503 59 245 0.0 2.0 0.00 0.00 0.00 90 1010.1
20260510032005 59 245 0.0 3.0 0.00 0.00 0.00 90 1010.1
20260510031503 59 245 0.0 3.0 0.00 0.00 0.00 89 1010.1
20260510031003 60 245 1.0 4.0 0.00 0.00 0.00 89 1010.1
20260510030504 60 245 1.0 4.0 0.00 0.00 0.00 89 1010.0
20260510030007 60 245 0.0 2.0 0.00 0.00 0.00 89 1010.0
20260510025506 60 245 1.0 3.0 0.00 0.00 0.00 89 1010.0
20260510025006 60 245 1.0 3.0 0.00 0.00 0.00 89 1010.0
20260510024505 60 245 1.0 3.0 0.00 0.00 0.00 89 1010.0
20260510023503 60 245 1.0 2.0 0.00 0.00 0.00 88 1010.0
20260510023005 60 245 1.0 2.0 0.00 0.00 0.00 89 1010.1
20260510022005 60 245 1.0 2.0 0.00 0.00 0.00 89 1010.1
20260510021504 60 245 0.0 2.0 0.00 0.00 0.00 88 1010.1
20260510020504 61 245 0.0 4.0 0.00 0.00 0.00 88 1010.2
20260510015503 61 246 0.0 2.0 0.00 0.00 0.00 87 1010.1
20260510015005 61 246 0.0 1.0 0.00 0.00 0.00 87 1010.1
20260510014502 61 246 0.0 2.0 0.00 0.00 0.00 87 1010.0
20260510014004 61 246 0.0 2.0 0.00 0.00 0.00 86 1009.9
20260510013503 62 246 0.0 2.0 0.00 0.00 0.00 86 1009.9
20260510012503 62 246 0.0 1.0 0.00 0.00 0.00 84 1009.9
20260510012004 62 246 0.0 1.0 0.00 0.00 0.00 85 1009.8
20260510011004 63 246 0.0 1.0 0.00 0.00 0.00 83 1009.8
20260510010503 63 246 0.0 1.0 0.00 0.00 0.00 83 1009.7
20260510010004 63 246 0.0 1.0 0.00 0.00 0.00 83 1009.7
20260510005503 63 246 0.0 1.0 0.00 0.00 0.00 82 1009.6
20260510005005 64 246 0.0 1.0 0.00 0.00 0.00 81 1009.6
20260510004503 64 246 0.0 1.0 0.00 0.00 0.00 81 1009.6
20260510004004 64 246 0.0 1.0 0.00 0.00 0.00 80 1009.6
20260510003503 64 246 0.0 1.0 0.00 0.00 0.00 80 1009.5
20260510003004 64 246 0.0 1.0 0.00 0.00 0.00 79 1009.5
20260510002504 65 246 0.0 1.0 0.00 0.00 0.00 79 1009.4
20260510001503 66 246 0.0 1.0 0.00 0.00 0.00 77 1009.3
20260510001003 66 246 0.0 3.0 0.00 0.00 0.00 77 1009.3
20260510000504 66 246 1.0 3.0 0.00 0.00 0.00 77 1009.1
20260509235504 67 246 1.0 2.0 0.00 0.00 0.00 75 1009.0
20260509235004 67 246 0.0 1.0 0.00 0.00 0.00 75 1009.1
20260509234504 68 246 0.0 2.0 0.00 0.00 0.00 74 1009.0
20260509234005 68 246 0.0 2.0 0.00 0.00 0.00 73 1009.0
20260509233503 69 246 0.0 1.0 0.00 0.00 0.00 72 1008.9
20260509233005 69 246 0.0 1.0 0.00 0.00 0.00 71 1008.9
20260509232503 69 246 0.0 1.0 0.00 0.00 0.00 71 1008.8
20260509232004 70 246 0.0 2.0 0.00 0.00 0.00 70 1008.8
20260509231005 70 246 1.0 3.0 0.00 0.00 0.00 69 1008.7
20260509230504 70 246 1.0 4.0 0.00 0.00 0.00 69 1008.8
20260509230005 71 246 1.0 4.0 0.00 0.00 0.00 67 1008.7
20260509225502 71 252 1.0 3.0 0.00 0.00 0.00 67 1008.6
20260509225005 71 252 2.0 7.0 0.00 0.00 0.00 67 1008.6
20260509224005 72 193 2.0 4.0 0.00 0.00 0.00 67 1008.5
20260509223504 72 279 2.0 5.0 0.00 0.00 0.00 66 1008.5
20260509223004 72 215 2.0 5.0 0.00 0.00 0.00 68 1008.5
20260509222503 72 214 3.0 8.0 0.00 0.00 0.00 69 1008.5
20260509222004 72 231 2.0 8.0 0.00 0.00 0.00 67 1008.6
20260509221503 72 188 1.0 5.0 0.00 0.00 0.00 68 1008.6
20260509221004 72 254 1.0 3.0 0.00 0.00 0.00 69 1008.6
20260509220503 72 253 1.0 3.0 0.00 0.00 0.00 70 1008.6
20260509215004 72 181 3.0 10.0 0.00 0.00 0.00 67 1008.5
20260509214004 72 234 3.0 7.0 0.00 0.00 0.00 69 1008.4
20260509213503 71 219 3.0 8.0 0.00 0.00 0.00 69 1008.4
20260509213004 71 205 3.0 6.0 0.00 0.00 0.00 69 1008.4
20260509212503 71 202 3.0 6.0 0.00 0.00 0.00 70 1008.4
20260509211502 70 184 2.0 10.0 0.00 0.00 0.00 72 1008.4
20260509211003 70 198 3.0 10.0 0.00 0.00 0.00 72 1008.4
20260509210503 70 251 5.0 11.0 0.00 0.00 0.00 72 1008.5
20260509205005 70 205 4.0 8.0 0.00 0.00 0.00 72 1008.7
20260509204503 71 211 6.0 16.0 0.00 0.00 0.00 70 1008.6
20260509204004 72 200 5.0 16.0 0.00 0.00 0.00 70 1008.6
20260509203503 73 250 3.0 11.0 0.00 0.00 0.00 69 1008.6
20260509203004 72 227 4.0 11.0 0.00 0.00 0.00 68 1008.6
20260509202503 73 232 3.0 10.0 0.00 0.00 0.00 70 1008.8
20260509202005 73 279 3.0 10.0 0.00 0.00 0.00 70 1009.0
20260509201503 71 269 3.0 10.0 0.00 0.00 0.00 71 1009.1
20260509201004 71 261 4.0 15.0 0.00 0.00 0.00 71 1009.1
20260509200503 71 244 5.0 15.0 0.00 0.00 0.00 70 1009.3
20260509195502 74 212 4.0 10.0 0.00 0.00 0.00 66 1009.4
20260509195003 74 186 4.0 9.0 0.00 0.00 0.00 65 1009.5
20260509194503 73 279 4.0 9.0 0.00 0.00 0.00 65 1009.4
20260509194003 73 228 5.0 9.0 0.00 0.00 0.00 67 1009.5
20260509193503 73 324 5.0 10.0 0.00 0.00 0.00 67 1009.6
20260509193005 72 268 5.0 13.0 0.00 0.00 0.00 69 1009.8
20260509192502 71 188 4.0 13.0 0.00 0.00 0.00 69 1009.9
20260509192003 72 254 4.0 10.0 0.00 0.00 0.00 69 1009.9
20260509191502 71 284 5.0 10.0 0.00 0.00 0.00 70 1010.0
20260509191004 70 276 5.0 11.0 0.00 0.00 0.00 72 1009.9
20260509190502 71 208 4.0 11.0 0.00 0.00 0.00 71 1010.1
20260509190005 71 237 5.0 13.0 0.00 0.00 0.00 74 1010.1
20260509185004 70 241 4.0 11.0 0.00 0.00 0.00 74 1010.3
20260509184503 69 216 4.0 11.0 0.00 0.00 0.00 75 1010.3
20260509184003 69 219 4.0 10.0 0.00 0.00 0.00 78 1010.4
20260509183503 68 174 4.0 11.0 0.00 0.00 0.00 77 1010.5
20260509183002 68 182 4.0 8.0 0.00 0.00 0.00 78 1010.6
20260509182003 67 255 5.0 15.0 0.00 0.00 0.00 79 1010.6
20260509181502 66 178 4.0 11.0 0.00 0.00 0.00 80 1010.7
20260509181002 65 265 4.0 10.0 0.00 0.00 0.00 81 1010.9
20260509180502 65 225 3.0 10.0 0.00 0.00 0.00 81 1010.9
20260509180007 64 213 4.0 11.0 0.00 0.00 0.00 83 1011.0
20260509175507 64 236 5.0 11.0 0.00 0.00 0.00 84 1011.1
20260509175002 64 193 6.0 15.0 0.00 0.00 0.00 83 1011.0
20260509174501 64 180 6.0 16.0 0.00 0.00 0.00 81 1011.0
20260509174002 65 179 5.0 16.0 0.00 0.00 0.00 80 1011.1
20260509173503 66 190 4.0 10.0 0.00 0.00 0.00 78 1011.0
20260509173003 66 223 4.0 10.0 0.00 0.00 0.00 77 1010.9
20260509172501 67 227 5.0 16.0 0.00 0.00 0.00 74 1010.8
20260509172004 68 202 5.0 16.0 0.00 0.00 0.00 71 1010.9
20260509171501 69 199 5.0 14.0 0.00 0.00 0.00 70 1010.8
20260509171004 71 277 6.0 14.0 0.00 0.00 0.00 70 1010.7
20260509170502 70 226 6.0 14.0 0.00 0.00 0.00 68 1010.5
20260509170005 70 140 5.0 14.0 0.00 0.00 0.00 69 1010.7
20260509165501 70 271 4.0 8.0 0.00 0.00 0.00 69 1010.8
20260509165001 70 246 3.0 10.0 0.00 0.00 0.00 65 1011.0
20260509164501 72 189 3.0 10.0 0.00 0.00 0.00 60 1010.8
20260509164002 72 236 4.0 10.0 0.00 0.00 0.00 59 1010.9
20260509163001 72 51 4.0 13.0 0.00 0.00 0.00 55 1011.0
20260509162001 73 259 4.0 16.0 0.00 0.00 0.00 54 1010.8
20260509161503 74 242 4.0 10.0 0.00 0.00 0.00 56 1010.8
20260509161001 73 194 4.0 10.0 0.00 0.00 0.00 53 1010.9
20260509160502 74 221 4.0 9.0 0.00 0.00 0.00 54 1010.9
20260509160005 74 333 4.0 11.0 0.00 0.00 0.00 57 1011.0
20260509155502 74 296 4.0 11.0 0.00 0.00 0.00 55 1011.3
20260509155004 73 184 5.0 20.0 0.00 0.00 0.00 54 1011.5
20260509153501 72 264 4.0 12.0 0.00 0.00 0.00 56 1011.9
20260509153002 72 257 4.0 12.0 0.00 0.00 0.00 56 1012.1
20260509152502 72 258 3.0 11.0 0.00 0.00 0.00 57 1012.2
20260509152002 71 159 4.0 10.0 0.00 0.00 0.00 57 1012.2
20260509151502 72 210 4.0 10.0 0.00 0.00 0.00 56 1012.2
20260509150502 72 228 5.0 11.0 0.00 0.00 0.00 58 1012.2
20260509150004 71 194 5.0 10.0 0.00 0.00 0.00 56 1012.2
20260509145502 72 241 5.0 12.0 0.00 0.00 0.00 58 1012.3
20260509145002 71 226 6.0 17.0 0.00 0.00 0.00 63 1012.4
20260509144500 70 223 5.0 17.0 0.00 0.00 0.00 59 1012.4
20260509144002 72 208 4.0 9.0 0.00 0.00 0.00 59 1012.5
20260509143501 72 338 4.0 11.0 0.00 0.00 0.00 61 1012.4
20260509143001 71 147 4.0 11.0 0.00 0.00 0.00 61 1012.4
20260509142501 71 238 4.0 11.0 0.00 0.00 0.00 60 1012.4
20260509141001 72 271 5.0 14.0 0.00 0.00 0.00 61 1012.4
20260509140006 70 237 5.0 14.0 0.00 0.00 0.00 63 1012.5
20260509135501 69 219 5.0 14.0 0.00 0.00 0.00 62 1012.6
20260509134500 69 220 5.0 14.0 0.00 0.00 0.00 62 1012.6
20260509134003 70 184 5.0 11.0 0.00 0.00 0.00 62 1012.7
20260509133501 69 221 5.0 12.0 0.00 0.00 0.00 64 1012.6
20260509132501 67 211 4.0 16.0 0.00 0.00 0.00 64 1012.7
20260509132002 67 231 4.0 13.0 0.00 0.00 0.00 65 1012.7
20260509131501 66 209 3.0 13.0 0.00 0.00 0.00 65 1012.8
20260509131001 66 272 3.0 8.0 0.00 0.00 0.00 66 1012.7
20260509130501 66 199 2.0 8.0 0.00 0.00 0.00 65 1012.7
20260509130001 66 227 3.0 9.0 0.00 0.00 0.00 65 1012.8
20260509125458 66 211 4.0 9.0 0.00 0.00 0.00 65 1012.8
20260509125001 66 226 4.0 10.0 0.00 0.00 0.00 65 1012.8
20260509124500 66 276 4.0 10.0 0.00 0.00 0.00 65 1012.8
20260509124001 65 226 3.0 12.0 0.00 0.00 0.00 67 1012.8
20260509123500 64 277 3.0 8.0 0.00 0.00 0.00 67 1012.8
20260509123000 64 241 3.0 10.0 0.00 0.00 0.00 67 1012.8
20260509122001 64 295 3.0 10.0 0.00 0.00 0.00 68 1012.8
20260509121459 63 243 3.0 10.0 0.00 0.00 0.00 69 1012.9
20260509121001 63 266 3.0 9.0 0.00 0.00 0.00 69 1013.0
20260509120501 63 244 3.0 11.0 0.00 0.00 0.00 71 1012.9
20260509120005 62 242 3.0 11.0 0.00 0.00 0.00 73 1013.0
20260509114501 60 209 3.0 10.0 0.00 0.00 0.00 77 1013.1
20260509114002 60 194 2.0 8.0 0.00 0.00 0.00 78 1013.0
20260509113501 59 257 2.0 11.0 0.00 0.00 0.00 79 1013.1
20260509113003 58 259 3.0 11.0 0.00 0.00 0.00 79 1013.1
20260509112501 58 213 4.0 11.0 0.00 0.00 0.00 79 1013.1
20260509112001 58 270 3.0 10.0 0.00 0.00 0.00 79 1013.2
20260509111501 58 225 3.0 9.0 0.00 0.00 0.00 79 1013.2
20260509111002 58 206 3.0 9.0 0.00 0.00 0.00 80 1013.2
20260509110004 57 210 3.0 8.0 0.00 0.00 0.00 80 1013.2
20260509105500 57 215 2.0 10.0 0.00 0.00 0.00 80 1013.1
20260509105002 57 259 2.0 4.0 0.00 0.00 0.00 80 1013.2
20260509104502 57 298 3.0 8.0 0.00 0.00 0.00 80 1013.2
20260509104003 56 231 3.0 9.0 0.00 0.00 0.00 80 1013.2
20260509103002 56 269 3.0 8.0 0.00 0.00 0.00 79 1013.1
20260509102501 56 282 3.0 6.0 0.00 0.00 0.00 79 1013.2
20260509102002 56 236 3.0 9.0 0.00 0.00 0.00 79 1013.2
20260509101501 56 261 3.0 12.0 0.00 0.00 0.00 78 1013.2
20260509101003 56 221 4.0 12.0 0.00 0.00 0.00 78 1013.1
20260509100500 57 218 4.0 11.0 0.00 0.00 0.00 78 1013.1
20260509100000 56 229 4.0 9.0 0.00 0.00 0.00 78 1013.0
20260509095459 56 225 4.0 8.0 0.00 0.00 0.00 78 1013.1
20260509095001 56 254 4.0 10.0 0.00 0.00 0.00 78 1013.0
20260509094459 56 207 3.0 10.0 0.00 0.00 0.00 78 1013.0
20260509094001 56 219 3.0 8.0 0.00 0.00 0.00 77 1013.0
20260509093500 56 236 4.0 9.0 0.00 0.00 0.00 77 1013.0
20260509093000 56 214 4.0 9.0 0.00 0.00 0.00 76 1012.9
20260509092459 56 233 4.0 7.0 0.00 0.00 0.00 76 1013.0
20260509091959 56 178 3.0 8.0 0.00 0.00 0.00 76 1012.8
20260509091500 56 232 3.0 8.0 0.00 0.00 0.00 76 1012.8
20260509091001 56 256 3.0 12.0 0.00 0.00 0.00 75 1012.8
20260509090500 56 222 3.0 12.0 0.00 0.00 0.00 75 1012.8
20260509090001 56 238 3.0 8.0 0.00 0.00 0.00 75 1012.9
20260509085459 56 190 3.0 8.0 0.00 0.00 0.00 75 1012.9
20260509085002 57 209 2.0 8.0 0.00 0.00 0.00 74 1013.0
20260509084501 57 202 2.0 6.0 0.00 0.00 0.00 74 1012.9
20260509084001 57 217 3.0 7.0 0.00 0.00 0.00 74 1013.0
20260509083002 57 278 3.0 10.0 0.00 0.00 0.00 74 1013.0
20260509082002 57 188 2.0 10.0 0.00 0.00 0.00 74 1013.1
20260509080500 57 198 4.0 11.0 0.00 0.00 0.00 73 1013.1
20260509080001 57 159 4.0 11.0 0.00 0.00 0.00 72 1013.1
20260509075458 57 254 3.0 11.0 0.00 0.00 0.00 72 1013.1
20260509075001 56 271 3.0 9.0 0.00 0.00 0.00 73 1013.2
20260509074500 57 227 3.0 10.0 0.00 0.00 0.00 72 1013.3
20260509074000 56 250 2.0 10.0 0.00 0.00 0.00 72 1013.4
20260509073459 56 237 3.0 9.0 0.00 0.00 0.00 71 1013.4
20260509073003 56 215 3.0 7.0 0.00 0.00 0.00 71 1013.4
20260509072000 56 244 3.0 9.0 0.00 0.00 0.00 70 1013.4
20260509071459 56 241 3.0 12.0 0.00 0.00 0.00 70 1013.4
20260509071001 56 225 3.0 12.0 0.00 0.00 0.00 71 1013.3
20260509070500 56 227 2.0 10.0 0.00 0.00 0.00 70 1013.2
20260509065959 56 237 2.0 7.0 0.00 0.00 0.00 71 1013.3
20260509065459 55 202 2.0 8.0 0.00 0.00 0.00 70 1013.3